User: anonymous   Login
Location: Unspecified
(0.0000°N, 0.0000°E)
Time: 02:50:28
(UTC+00:00)
Language:

Galileo 5 - Orbit

View from above orbital plane
View from above orbital plane
View from above satellite
View from above satellite

Ground track
Ground track

The orbit data is extracted from the following two-line orbital elements,

1 40128U 14050A   23331.96505903 -.00000099  00000-0  00000-0 0  9993
2 40128  49.8586 311.1796 1606240 143.5671 228.5386  1.85519573 61028
Epoch (UTC): 27 November 2023 23:09:41
Eccentricity: 0.1606240
inclination: 49.8586°
perigee height: 17105 km
apogee height: 26093 km
right ascension of ascending node: 311.1796°
argument of perigee: 143.5671°
revolutions per day: 1.85519573
mean anomaly at epoch: 228.5386°
orbit number at epoch: 6102

The dashed part of the orbit path shows where the satellite is in the earth's shadow,  

DLR